Terminal Aerodrome Forecast
Issued by NWS Raleigh/Durham, NC

Home | Current Version | Previous Version | Text Only | Print | Product List | Glossary On
Versions: 1 2 3 4 5 6 7 8 9 10 11 12 13 14 15 16 17 18 19 20 21 22 23 24 25 26 27 28 29 30 31 32 33 34 35 36 37 38 39 40 41 42 43 44 45 46 47 48 49 50
000
FTUS42 KRAH 251125
TAFFAY
TAF
KFAY 251125Z 2512/2612 02009KT P6SM BKN005
      TEMPO 2512/2514 SCT005 BKN025
     FM251400 05005KT P6SM BKN030 BKN050
     FM251600 06005KT P6SM VCSH BKN035
     FM260200 VRB02KT P6SM SCT020 SCT040
     FM260900 VRB02KT 1SM BR SCT002 SCT040=

USA.gov is the U.S. government's official web portal to all federal, state and local government web resources and services.